Lapse_Rate
6.5 6.6 6.5 6.4 6.4 6.3 6.2 6.3 6.3 6.5 6.6 6.7 6.7 6.7 6.7 6.7 6.7 6.6 6.8 6.8 7.1 7.4 7.6 7.9 7.5 7.3 6.9 6.8 6.7 6.6 6.1 6.4 6.8 7.1 8.0 8.2 8.0 7.9 8.0 7.9 7.7 7.4 7.6 7.4 7.7
6.3 6.2 6.2 6.3 6.3 6.2 6.1 6.0 6.1 6.1 6.1 6.3 6.7 6.8 6.9 6.9 7.0 6.8 6.7 6.7 7.0 7.2 7.3 7.4 7.4 7.1 7.2 7.1 6.9 6.6 6.1 6.6 7.4 7.6 8.1 8.4 8.1 8.2 8.2 8.2 7.8 7.8 7.6 7.6 7.6
5.9 5.9 6.0 6.0 6.1 6.1 6.1 6.1 6.0 5.9 5.8 5.7 5.9 6.1 6.5 6.7 6.8 6.7 6.9 6.7 6.6 6.7 6.9 6.9 7.3 7.0 7.1 7.1 6.9 7.0 6.6 7.2 7.6 7.5 7.9 8.0 7.9 8.2 8.3 8.1 8.4 8.3 8.2 7.8 8.0
5.9 6.0 6.0 6.0 6.0 6.1 6.1 6.2 6.1 5.9 5.7 5.6 5.6 5.7 5.7 5.7 5.8 5.9 6.0 6.5 6.7 6.8 6.7 6.8 7.0 7.1 6.8 7.1 7.4 7.0 7.2 7.3 7.6 7.6 7.7 8.0 8.0 7.9 8.1 8.0 8.6 8.5 8.3 8.3 8.1
5.8 5.8 5.9 5.9 6.0 5.9 6.0 5.9 5.8 5.9 6.0 6.2 6.1 6.0 5.9 5.7 5.8 5.9 6.1 6.0 6.1 6.5 6.7 6.7 6.7 6.7 7.0 6.9 7.3 7.1 7.2 7.3 7.6 7.8 7.9 7.8 8.0 7.7 7.7 7.9 8.2 8.3 8.1 8.2 7.9
5.8 5.8 5.8 5.8 5.7 5.7 5.7 5.7 5.7 5.7 5.6 5.7 5.7 5.8 5.8 5.5 5.5 5.9 6.0 5.8 5.5 5.7 6.3 6.5 6.5 6.5 6.5 6.6 7.0 7.3 7.2 7.0 7.1 7.6 7.6 7.6 7.8 7.8 7.6 8.1 8.0 7.9 7.9 7.9 8.0
5.6 5.6 5.5 5.4 5.5 5.5 5.6 5.5 5.4 5.4 5.4 5.3 5.3 5.3 5.6 5.3 5.1 5.2 5.8 5.5 5.4 5.5 5.5 5.9 6.0 6.0 6.1 6.2 6.5 6.8 6.6 6.6 6.7 7.0 7.1 7.2 7.1 7.1 7.7 8.1 7.8 8.0 8.1 8.2 8.4
5.8 5.8 5.8 5.7 5.5 5.4 5.4 5.3 5.3 5.1 5.2 5.1 5.1 5.1 5.0 4.9 4.8 4.7 4.8 5.2 5.1 5.3 5.3 5.2 5.1 5.5 5.7 5.7 5.6 6.0 6.4 6.2 6.6 6.7 7.2 6.9 6.9 7.7 7.8 7.7 7.9 8.0 8.2 8.5 8.2
5.7 5.9 5.9 5.9 5.6 5.5 5.6 5.5 5.3 5.0 4.9 4.8 4.6 4.5 4.1 4.1 4.1 4.1 4.3 4.5 4.4 4.9 4.9 5.1 4.7 5.1 5.3 5.4 5.2 5.2 5.6 6.0 6.2 6.6 6.7 6.7 7.0 7.3 7.5 8.0 8.2 8.3 8.2 8.1 7.9
6.0 5.9 5.9 5.8 5.6 5.4 5.3 5.5 5.3 4.8 4.7 4.7 4.1 4.2 3.7 3.7 3.6 3.6 3.8 3.6 3.7 4.0 4.6 4.8 4.3 4.5 4.9 4.9 4.8 5.1 5.2 5.4 5.5 5.9 6.6 6.5 6.7 7.1 7.5 7.6 7.6 7.7 7.9 7.7 7.5
6.2 5.9 5.8 5.7 5.4 5.2 5.0 5.2 5.8 5.6 4.1 4.2 3.9 3.7 3.6 3.9 3.7 3.7 3.7 3.7 3.5 3.4 3.4 3.6 4.0 4.1 4.8 5.0 5.1 5.2 5.1 5.2 5.5 5.7 6.2 6.4 6.6 6.8 6.8 6.9 6.9 7.0 7.4 7.4 7.3
6.2 5.9 5.5 5.5 5.2 5.0 4.8 4.6 4.4 4.3 4.7 4.3 4.3 4.3 4.1 4.1 5.0 5.7 5.0 5.1 4.8 4.1 3.8 4.1 3.7 3.9 4.3 4.5 4.7 4.9 5.2 5.2 5.4 6.0 5.8 6.1 6.1 6.5 6.3 6.7 7.0 7.1 7.3 7.4 7.3
6.1 6.0 5.6 5.5 5.3 4.8 4.7 4.6 4.7 4.7 4.8 4.9 4.9 4.9 5.6 5.9 7.1 7.4 7.3 7.4 7.2 7.1 6.3 5.7 4.9 4.8 4.6 4.6 4.6 4.7 4.8 4.8 4.9 5.6 5.7 5.6 5.6 6.0 6.4 6.4 6.9 7.0 7.0 7.1 7.2
5.9 5.7 5.7 5.4 5.3 5.1 5.0 5.0 5.2 5.3 4.8 5.2 5.7 5.8 6.9 7.3 8.0 8.0 7.5 7.4 7.3 7.7 8.2 7.9 7.0 6.1 5.8 5.1 5.0 4.8 4.8 4.8 4.9 5.2 5.3 5.8 4.4 5.1 6.2 6.5 6.7 6.8 7.1 7.3 7.3
5.7 5.5 5.7 5.7 5.5 5.3 5.4 5.4 5.6 5.6 4.5 5.6 6.1 6.5 7.4 7.9 8.0 8.0 7.7 7.5 7.6 7.6 8.5 7.9 8.0 7.6 7.2 6.2 5.7 4.6 4.9 4.8 4.8 5.1 5.2 5.2 5.3 4.8 6.1 6.7 6.8 7.1 7.3 7.3 7.9
5.4 5.7 5.6 5.5 5.3 5.3 5.5 5.7 6.0 5.7 5.1 6.5 6.8 7.3 7.6 7.9 7.9 8.0 7.7 7.3 7.3 7.5 7.8 7.8 8.4 8.4 8.1 7.3 7.0 5.9 5.5 5.4 5.6 5.3 4.6 4.8 5.3 5.2 5.7 6.6 7.1 7.3 7.8 8.1 7.8
5.4 5.4 5.5 5.4 5.2 5.3 5.6 5.9 5.9 5.8 5.9 6.0 6.9 7.5 7.4 7.3 7.6 7.9 7.6 7.9 7.4 6.9 7.6 7.7 8.0 8.4 8.6 8.0 7.3 6.6 6.3 5.1 5.3 4.6 4.1 5.4 5.2 5.3 6.1 5.9 6.9 7.3 7.6 7.7 7.4
5.5 5.5 5.5 5.3 5.2 5.3 5.7 5.8 5.9 5.7 5.7 6.2 6.7 7.4 7.5 7.5 7.8 8.1 8.3 7.8 7.2 7.1 7.3 7.1 8.1 8.7 8.4 8.3 7.5 7.2 6.6 5.5 5.3 4.4 4.5 5.0 4.4 4.4 5.3 6.5 6.9 7.1 7.5 7.7 7.6
5.5 5.4 5.4 5.4 5.5 5.6 5.7 5.8 5.4 5.3 5.5 5.8 7.0 7.0 7.4 7.8 7.7 7.6 8.4 7.9 7.5 7.2 7.0 7.4 7.4 8.0 8.4 8.1 8.1 7.5 7.2 6.8 6.5 5.5 4.7 5.0 4.9 4.6 6.1 6.4 6.7 7.7 7.7 7.3 7.3
5.5 5.5 5.5 5.6 5.6 5.7 5.7 5.5 5.6 5.5 5.6 6.3 6.6 7.0 7.0 7.3 7.4 7.6 8.0 8.0 7.8 7.4 7.2 7.4 7.6 7.6 7.5 7.5 8.0 7.9 7.6 7.6 6.5 5.0 4.3 4.5 4.7 4.9 6.1 7.0 6.8 7.1 7.1 7.3 7.7
5.5 5.5 5.5 5.6 5.6 5.6 5.6 5.7 5.8 5.8 5.7 6.3 6.9 6.8 7.3 7.1 7.3 7.4 7.7 8.1 7.9 7.9 7.5 7.5 7.6 8.1 8.0 8.1 8.3 8.5 7.7 7.6 6.6 5.8 4.0 4.0 4.8 5.8 6.4 7.3 7.0 7.0 7.3 8.0 8.1
5.4 5.4 5.3 5.4 5.5 5.3 5.4 5.2 5.6 6.0 6.2 6.6 7.0 7.2 7.2 7.2 7.2 7.3 7.6 7.9 7.9 7.7 7.8 7.6 7.4 7.3 7.8 7.9 8.0 8.1 8.0 7.7 6.6 5.6 4.9 4.4 4.7 6.1 5.4 5.7 7.0 7.3 7.2 8.4 8.3
5.6 5.4 5.0 5.0 5.2 5.4 5.7 5.9 5.7 5.8 6.3 6.4 7.1 7.1 7.2 7.1 7.0 7.3 7.4 7.5 7.5 7.3 7.4 7.5 7.2 7.1 7.8 7.6 7.6 7.6 7.6 7.4 6.0 5.1 4.1 4.0 4.8 6.4 6.2 6.1 6.7 7.3 7.4 8.2 8.4
5.5 5.3 5.1 5.2 5.0 5.0 5.4 6.0 5.9 6.0 6.4 6.3 6.9 7.0 6.9 7.0 7.1 6.9 7.3 7.3 7.5 7.2 7.2 7.3 7.0 7.1 7.0 7.7 7.4 7.2 7.0 6.9 5.7 4.4 4.1 3.9 4.1 6.2 6.3 6.2 6.5 6.7 7.5 7.6 8.2
5.2 5.0 5.0 5.1 5.5 5.4 5.1 5.6 5.4 5.5 6.2 6.6 6.8 6.8 6.5 6.7 6.7 6.8 7.0 7.1 7.2 7.2 7.0 7.0 6.8 7.0 7.1 7.1 7.2 7.3 7.2 6.9 5.8 4.0 3.3 3.8 4.0 5.6 5.7 6.2 6.6 6.6 7.3 7.6 7.8
5.1 5.2 5.3 5.0 5.2 5.4 5.3 5.6 5.4 5.6 5.8 6.3 6.7 6.6 6.4 6.3 6.6 6.5 6.8 7.1 6.9 6.9 6.9 7.0 6.7 6.6 6.5 7.1 7.1 7.0 7.4 6.8 6.0 4.4 3.0 3.0 3.4 5.1 5.8 6.1 6.6 6.7 7.3 7.8 7.5
5.3 5.4 5.4 5.0 5.3 5.4 5.5 5.5 6.1 5.3 6.4 6.4 6.4 6.2 6.2 6.7 6.6 6.8 6.5 7.0 6.8 6.8 6.9 6.7 6.5 6.4 6.5 7.0 6.6 6.3 7.1 7.3 6.7 5.7 4.1 3.1 4.5 5.6 5.9 6.1 7.1 6.8 7.0 7.8 7.6
Wind_Speed
18 18 19 20 21 21 21 21 21 20 19 19 19 20 21 24 27 4 6 11 8 12 15 7 4 5 2 4 5 4 2 5 7 8 5 2 1 3 3 1 0 2 3 4 4
18 19 20 21 22 21 21 21 21 21 20 18 18 19 21 23 8 9 10 10 11 18 5 4 6 6 4 6 5 5 5 9 6 7 4 4 2 5 4 7 3 1 3 5 4
21 21 21 22 22 22 23 22 23 23 23 21 19 19 19 19 4 6 12 16 9 14 8 6 5 5 6 4 6 7 11 11 5 7 4 7 8 3 3 5 6 5 4 5 7
21 22 23 24 24 24 24 24 23 22 21 20 18 17 17 3 4 2 6 20 20 16 5 5 6 5 7 11 6 5 13 13 7 4 4 6 6 12 12 8 9 7 8 5 10
23 24 25 26 26 27 26 25 24 23 21 17 13 10 4 4 10 7 15 17 9 7 3 5 10 4 6 5 4 14 7 10 16 9 8 6 15 11 22 13 12 14 14 13 10
24 25 26 27 28 30 28 27 26 23 18 12 7 4 3 4 5 5 6 9 3 4 4 3 6 7 5 5 16 1 9 10 6 6 5 8 15 5 5 8 12 13 16 11 11
24 26 27 27 27 28 29 30 31 23 16 7 4 5 4 12 4 12 7 3 3 5 4 5 8 4 2 3 6 4 6 3 7 6 9 8 20 28 20 13 19 21 19 15 15
24 25 26 25 26 28 29 30 30 22 8 1 7 3 7 6 12 7 4 4 6 6 10 11 6 4 7 5 4 4 5 16 14 9 6 10 29 20 9 16 21 21 16 15 15
24 25 26 26 26 26 28 29 23 8 7 10 4 3 10 6 3 7 8 4 8 2 6 11 5 7 4 5 4 4 16 9 5 8 10 13 31 7 7 8 13 11 11 12 14
25 26 28 28 27 26 29 25 17 7 5 5 3 1 6 9 6 6 6 8 3 6 4 4 4 4 4 7 13 9 5 2 5 5 15 14 32 14 10 12 17 11 14 13 10
26 27 28 29 28 27 11 5 6 5 4 6 9 5 17 7 8 5 6 2 3 4 4 4 4 14 15 16 5 4 2 1 3 4 4 17 21 16 10 11 16 18 19 20 20
26 26 27 27 26 20 3 3 5 5 8 11 13 10 12 5 6 6 2 2 2 4 2 5 10 8 5 7 10 6 1 3 5 8 4 7 12 9 8 13 14 18 17 14 13
26 25 26 27 30 2 1 3 2 3 2 8 6 4 9 3 5 7 1 1 3 4 4 6 8 3 7 5 5 4 9 3 6 8 12 8 18 12 8 12 16 17 15 15 15
27 24 23 27 1 3 4 1 7 3 3 5 5 3 8 11 3 5 4 4 2 4 3 5 7 6 6 9 7 5 3 1 2 3 8 2 9 15 15 18 14 12 14 14 12
27 25 20 12 4 1 2 9 3 3 4 11 4 3 15 2 8 3 5 2 6 7 3 11 4 3 5 6 7 9 8 8 7 6 3 3 5 13 5 11 12 16 19 18 17
30 27 19 1 2 5 11 5 3 5 4 7 6 12 14 8 8 5 7 4 3 5 7 24 3 5 7 7 9 6 6 4 1 2 7 7 6 21 9 12 7 14 13 12 11
34 29 5 4 3 4 4 3 4 4 4 5 8 12 17 5 9 5 10 7 2 5 5 10 14 11 5 3 2 5 5 2 1 2 12 12 9 24 4 6 4 9 9 10 9
35 11 5 4 3 7 3 5 5 1 5 5 9 16 4 6 5 7 7 5 2 7 4 3 2 5 5 11 7 7 7 5 6 6 5 6 12 8 11 13 10 6 9 10 11
21 3 1 3 1 2 5 4 5 4 3 6 13 3 4 4 3 6 4 3 4 6 5 2 4 5 2 2 9 4 4 7 3 3 1 5 7 8 16 10 8 8 9 11 11
2 4 4 9 2 5 5 2 3 4 5 5 3 3 4 6 6 6 4 2 4 3 3 3 4 7 6 4 5 4 4 3 1 4 5 6 6 6 6 2 4 8 11 13 6
3 3 3 7 3 5 3 4 5 5 6 3 4 4 7 7 4 4 5 7 1 5 6 4 0 5 2 3 4 1 1 2 2 5 4 2 5 6 15 4 8 10 11 13 6
3 2 3 3 4 1 1 5 6 6 1 5 5 8 7 4 5 4 6 3 4 3 5 1 1 4 5 5 5 2 3 1 4 8 4 3 6 6 6 7 8 13 11 6 4
3 3 3 4 2 3 5 5 4 4 5 3 4 3 3 3 5 4 6 4 7 2 4 1 1 3 5 3 5 2 3 3 1 0 5 4 7 5 9 14 13 11 8 3 5
2 4 4 4 1 2 4 7 5 5 6 3 5 5 3 4 7 6 8 6 3 2 8 1 2 5 5 2 2 4 8 8 3 3 5 10 9 22 19 12 16 14 7 3 6
3 1 1 4 3 5 4 5 8 6 3 3 3 4 8 7 12 14 13 7 7 5 1 4 4 3 8 11 8 7 13 13 15 13 8 3 2 16 14 15 17 11 6 5 9
2 3 3 3 5 4 4 3 8 8 5 10 7 15 13 13 13 21 18 8 9 5 7 6 4 2 11 10 11 14 17 16 15 19 16 14 15 16 17 11 12 10 10 8 10
1 1 2 4 4 2 3 4 8 14 7 9 15 16 15 18 12 19 19 21 13 5 6 5 2 1 4 5 4 11 16 22 18 14 13 14 11 15 13 12 7 8 9 10 11
Wind_Direction
356 352 348 345 344 343 340 335 331 331 329 327 331 332 330 328 324 315 263 228 209 297 340 310 202 215 171 181 175 133 130 221 215 176 245 210 286 257 258 181 123 110 130 230 15
356 351 347 344 340 337 333 329 327 324 322 324 328 331 329 327 309 274 269 269 277 290 307 262 222 179 212 191 194 165 179 217 203 202 230 263 281 318 358 344 255 194 228 331 62
354 349 344 340 337 333 329 325 321 319 319 323 329 331 333 326 303 235 137 25 329 291 240 257 286 221 212 193 196 192 221 218 236 217 234 283 311 316 331 288 227 264 281 350 336
348 345 341 338 335 331 327 322 319 315 314 315 322 329 329 304 322 70 239 355 349 338 160 203 236 208 192 206 199 219 222 218 226 223 255 243 291 297 283 239 289 300 288 295 279
347 344 341 338 334 331 327 324 321 316 313 311 313 321 358 350 254 326 340 346 340 359 330 216 219 196 192 214 187 234 210 222 241 240 240 277 258 258 275 290 296 292 278 269 263
346 342 339 337 335 332 327 324 320 320 316 303 288 278 202 264 258 276 339 324 331 349 295 239 229 223 278 212 203 166 221 238 243 230 243 248 269 238 235 251 252 256 266 266 248
342 339 337 335 332 329 326 323 319 323 321 300 237 212 250 245 256 297 305 258 217 248 270 232 241 258 264 298 244 256 276 261 219 220 235 212 266 251 248 253 263 265 264 264 258
338 335 333 332 332 328 324 317 313 316 332 122 153 194 249 248 281 298 240 282 240 231 225 263 259 238 195 293 307 202 170 242 236 180 239 159 257 251 211 227 245 250 250 255 260
337 333 331 331 330 327 319 308 303 329 115 135 106 114 274 302 268 237 185 256 315 194 207 264 166 201 152 196 346 240 237 217 247 214 198 192 252 203 204 219 249 259 266 252 257
336 333 331 331 331 331 323 318 315 99 119 160 137 288 275 309 307 277 233 251 218 323 318 177 227 195 163 175 213 218 233 194 193 212 197 207 245 254 270 265 264 257 256 262 262
337 334 331 330 331 335 343 5 11 348 50 266 264 245 276 273 271 270 263 217 161 82 335 260 194 217 215 224 252 38 68 83 334 265 216 224 250 253 252 261 262 264 265 266 268
335 333 331 328 328 329 29 54 117 241 300 291 261 243 263 242 292 309 46 187 171 191 356 331 258 240 235 207 248 270 280 248 266 258 227 285 280 275 259 257 248 254 257 259 264
331 335 332 328 322 49 227 216 121 167 241 295 251 265 279 276 288 292 310 300 241 176 218 201 263 319 208 214 213 206 229 226 221 296 286 291 283 271 248 241 249 256 257 256 251
330 334 334 331 62 302 282 139 336 159 47 282 327 331 356 316 273 320 224 243 271 241 249 210 252 228 244 233 221 217 175 299 314 177 257 45 283 279 271 262 252 253 253 250 239
329 328 327 324 283 268 254 327 330 68 352 312 342 280 328 318 274 288 252 238 253 272 342 270 224 233 225 209 182 247 194 226 236 267 309 260 304 273 217 258 256 253 255 251 242
326 323 320 144 219 251 315 332 60 47 270 333 326 333 342 311 312 292 313 221 264 258 241 241 258 187 223 244 215 205 179 180 156 130 257 205 191 277 243 250 232 243 251 255 256
328 323 272 175 229 325 323 50 40 112 338 317 315 328 326 290 314 318 328 324 42 312 12 322 228 236 229 238 237 189 119 129 127 187 233 176 190 236 254 309 238 275 269 259 254
332 345 179 226 270 360 49 54 75 253 271 289 308 310 282 352 293 304 315 327 212 238 229 286 225 178 201 199 193 201 172 166 171 188 227 142 226 245 226 249 271 280 261 274 268
335 345 5 288 347 103 61 51 201 225 264 309 319 300 283 311 275 342 301 274 313 74 326 246 289 332 328 257 155 172 163 214 24 287 125 213 277 286 280 281 282 298 298 287 277
4 349 333 321 99 56 67 266 231 229 298 296 250 290 286 312 324 350 296 268 349 352 190 308 302 140 272 342 268 163 170 106 316 208 229 249 256 236 292 339 331 330 295 280 275
29 42 270 340 56 45 117 248 283 277 316 278 245 265 260 303 278 275 272 297 125 309 330 3 157 295 345 203 211 24 261 223 198 176 210 298 267 228 221 324 351 313 301 312 193
6 43 318 22 45 64 25 309 295 283 292 279 279 254 247 291 277 268 250 215 334 319 307 5 302 277 263 274 332 5 293 258 199 243 264 123 286 313 77 52 10 336 333 349 117
360 292 323 70 70 335 304 298 276 302 315 292 275 259 12 296 294 262 274 305 333 296 251 217 256 311 326 14 39 359 315 268 223 301 218 224 245 257 338 6 341 332 324 34 139
8 355 332 39 88 124 306 316 297 289 282 300 274 276 299 266 237 271 265 297 273 263 275 260 205 214 214 229 165 292 294 306 221 254 263 245 299 280 301 340 330 329 306 158 166
26 326 242 305 321 315 269 281 282 305 279 265 263 228 295 295 289 265 267 273 268 272 39 155 241 231 260 273 280 256 266 276 271 252 254 311 269 286 309 311 300 304 277 186 172
45 23 353 287 286 278 273 266 289 318 306 300 257 306 301 280 274 286 282 259 256 203 184 183 244 305 287 259 250 264 264 250 255 254 259 258 270 279 275 278 281 301 296 199 176
348 341 112 278 295 360 250 302 307 313 278 270 290 299 293 288 293 282 271 266 248 215 199 176 208 188 255 242 300 274 253 250 248 225 218 234 245 260 275 277 282 303 284 205 186